DateTimeUTC,F1_A11,F1_S11,BsB_S11,BsG_S11,BsR_S11,BbsB_S11,BbsG_S11,BbsR_S11,BaB_A11,BaG_A11,BaR_A11,Tu_S11,T_S11,Uu_S11,U_S11,P_S11,T1_A11
2021-07-04T11:00:00Z,00000200,20000000,,,,,,,-000.34,0000.10,0000.02,18.6,25.0,09.9,06.7,0671.0,31.1
2021-07-04T11:01:00Z,00000200,20000000,,,,,,,0000.03,-000.10,-000.20,18.6,25.0,09.9,06.7,0671.0,31.1
2021-07-04T11:02:00Z,00000200,20000000,,,,,,,-000.09,0000.23,-000.09,18.6,25.0,09.9,06.7,0671.0,31.1
2021-07-04T11:03:00Z,00000200,60000000,,,,,,,0000.21,0000.23,0000.12,18.6,25.0,09.9,06.7,0671.0,31.1
2021-07-04T11:04:00Z,00000200,40000000,-000.14,0000.39,0000.27,0000.04,0000.05,0000.00,0000.46,0000.10,0000.34,18.7,24.9,09.9,06.8,0672.0,31.1
2021-07-04T11:05:00Z,00000200,00000000,0000.68,0000.36,0000.23,0000.09,0000.21,0000.04,0000.16,0000.08,0000.29,18.7,24.9,09.9,06.8,0672.0,31.1
2021-07-04T11:06:00Z,00000200,00000000,0000.44,0000.18,0000.13,-000.30,0000.10,-000.06,-000.12,-000.10,-000.52,18.7,24.8,10.0,06.9,0672.0,31.1
2021-07-04T11:07:00Z,00000200,00000000,0000.28,0000.05,0000.31,-000.45,0000.32,0000.08,0000.32,0000.61,0001.02,18.7,24.8,09.9,06.8,0672.0,31.1
2021-07-04T11:08:00Z,00000200,00000000,0000.14,0000.49,0000.15,-000.05,0000.38,-000.06,-000.19,-000.39,-000.55,18.7,24.8,09.9,06.8,0672.1,31.1
2021-07-04T11:09:00Z,00000200,00000000,0000.43,0000.20,0000.13,-000.12,0000.16,-000.13,0000.43,0000.21,0000.02,18.7,24.8,10.1,07.0,0672.0,31.1
2021-07-04T11:10:00Z,00000200,00000000,0000.45,0000.09,0000.11,0000.09,0000.25,-000.23,-000.23,0000.03,0000.04,18.7,24.8,10.0,06.9,0672.1,31.1
2021-07-04T11:11:00Z,00000200,00000000,0000.07,0000.19,0000.10,0000.08,0000.19,0000.20,0000.23,-000.20,-000.32,18.7,24.8,10.0,06.9,0672.0,31.1
2021-07-04T11:12:00Z,00000200,00000000,0000.75,0000.43,0000.13,0000.25,0000.02,0000.01,0000.05,0000.38,0000.31,18.8,24.8,10.0,06.9,0672.1,31.1
2021-07-04T11:13:00Z,00000200,00000000,0000.51,0000.39,0000.07,0000.24,0000.40,-000.07,0000.07,0000.04,0000.29,18.8,24.8,10.0,06.9,0672.0,31.1
2021-07-04T11:14:00Z,00000200,00000000,0000.82,0000.32,0000.19,0000.16,0000.40,-000.07,0000.53,0000.40,0000.11,18.8,24.8,10.0,06.9,0672.0,31.1
2021-07-04T11:15:00Z,00000200,00000000,0000.30,0000.25,0000.06,-000.27,0000.26,-000.03,-000.28,-000.03,0000.13,18.7,24.8,10.1,07.0,0672.1,31.1
2021-07-04T11:16:00Z,00000200,00000000,0000.02,0000.12,0000.04,-000.45,0000.34,0000.02,0000.36,-000.02,0000.05,18.8,24.8,10.1,07.0,0672.0,31.1
2021-07-04T11:17:00Z,00000200,00000000,0000.28,0000.45,0000.08,-000.12,0000.09,-000.02,-000.21,0000.10,-000.04,18.7,24.8,10.1,06.9,0672.0,31.1
2021-07-04T11:18:00Z,00000200,00000000,0000.62,0000.06,0000.08,-000.46,0000.31,0000.35,0000.30,0000.34,-000.02,18.7,24.8,10.0,06.9,0672.0,31.1
2021-07-04T11:19:00Z,00000200,00000000,0000.46,0000.28,0000.43,-000.05,0000.29,0000.10,0000.25,-000.23,0000.55,18.7,24.8,10.2,07.0,0672.0,31.1
2021-07-04T11:20:00Z,00000200,00000000,0000.03,0000.51,0000.23,-000.48,0000.08,-000.05,-000.03,0000.08,-000.33,18.7,24.8,10.3,07.1,0672.0,31.1
2021-07-04T11:21:00Z,00000200,00000000,0000.40,0000.67,0000.47,0000.68,0000.59,-000.04,0000.18,0000.11,0000.15,18.7,24.8,10.2,07.1,0672.0,31.1
2021-07-04T11:22:00Z,00000200,00000000,0000.21,0000.45,0000.08,0000.29,0000.03,-000.14,-000.21,-000.05,0000.07,18.7,24.8,10.1,07.0,0671.9,31.1
2021-07-04T11:23:00Z,00000200,00000000,0001.48,0000.11,0000.30,0000.02,0000.35,-000.01,0000.24,0000.38,0000.18,18.7,24.8,10.2,07.0,0672.0,31.1
2021-07-04T11:24:00Z,00000200,00000000,0000.56,-000.02,0000.09,0000.01,0000.21,-000.05,0000.06,0000.04,0000.24,18.7,24.8,10.2,07.1,0672.0,31.1
2021-07-04T11:25:00Z,00000200,00000000,0000.59,0000.27,0000.29,0000.11,0000.22,0000.33,0000.01,0000.03,-000.03,18.7,24.8,10.3,07.1,0672.0,31.1
2021-07-04T11:26:00Z,00000200,00000000,0000.58,0000.77,0000.28,0000.42,0000.24,-000.18,0000.48,0000.35,-000.13,18.7,24.8,10.3,07.1,0672.1,31.1
2021-07-04T11:27:00Z,00000200,00000000,0000.58,0000.44,-000.02,0000.29,0000.35,-000.12,-000.18,-000.45,0000.16,18.7,24.8,10.3,07.1,0672.0,31.1
2021-07-04T11:28:00Z,00000200,00000000,0000.68,0000.18,0000.30,-000.44,0000.06,0000.10,0000.47,0000.31,0000.08,18.7,24.8,10.3,07.1,0672.0,31.1
2021-07-04T11:29:00Z,00000200,00000000,0000.09,0000.23,0000.15,0000.28,0000.24,0000.29,-000.37,0000.04,0000.17,18.7,24.8,10.3,07.1,0672.0,31.1
2021-07-04T11:30:00Z,00000200,00000000,0000.83,0000.22,-000.08,-000.34,0000.21,-000.28,0000.34,0000.21,-000.09,18.7,24.8,10.2,07.0,0672.0,31.1
2021-07-04T11:31:00Z,00000200,00000000,0000.24,0000.17,0000.16,0000.33,-000.00,-000.07,-000.16,0000.05,0000.22,18.7,24.8,10.3,07.1,0672.0,31.1
2021-07-04T11:32:00Z,00000200,00000000,0000.11,0000.24,-000.06,-000.32,0000.03,0000.00,0000.18,-000.16,-000.13,18.7,24.8,10.2,07.0,0672.0,31.1
2021-07-04T11:33:00Z,00000200,00000000,0000.36,0000.20,-000.02,0000.45,-000.02,0000.11,-000.03,0000.08,-000.24,18.7,24.8,10.3,07.1,0672.0,31.1
2021-07-04T11:34:00Z,00000200,00000000,0000.44,0000.38,0000.02,0000.13,-000.01,0000.40,0000.19,0000.35,0000.50,18.7,24.8,10.4,07.2,0672.0,31.1
2021-07-04T11:35:00Z,00000200,00000000,0000.26,0000.41,0000.27,-000.37,0000.18,0000.20,0000.36,0000.17,0000.20,18.7,24.8,10.5,07.3,0672.1,31.1
2021-07-04T11:36:00Z,00000200,00000000,0000.13,-000.04,0000.17,0000.45,0000.14,-000.02,-000.13,-000.26,-000.13,18.7,24.8,10.4,07.2,0672.0,31.1
2021-07-04T11:37:00Z,00000200,00000000,-000.19,0000.43,0000.18,-000.51,0000.18,0000.30,0000.08,0000.21,-000.07,18.7,24.8,10.2,07.0,0671.9,31.1
2021-07-04T11:38:00Z,00000200,00000000,0000.58,0000.28,0000.09,0000.22,0000.19,-000.07,-000.44,0000.04,0000.13,18.8,24.8,10.1,07.0,0671.9,31.1
2021-07-04T11:39:00Z,00000200,00000000,0000.24,0000.50,0000.10,0000.76,-000.01,0000.00,0000.33,0000.07,0000.17,18.9,24.9,10.2,07.0,0672.0,31.1
2021-07-04T11:40:00Z,00000200,00000000,0000.33,0000.43,0000.38,-000.07,0000.21,0000.06,0000.01,0000.34,-000.04,19.0,24.9,10.1,07.0,0672.0,31.2
2021-07-04T11:41:00Z,00000200,00000000,0000.73,0000.35,0000.24,0000.28,0000.33,-000.03,0000.23,-000.22,-000.27,19.0,25.0,09.9,06.9,0671.9,31.2
2021-07-04T11:42:00Z,00000200,00000000,0000.51,0000.34,0000.18,0000.12,0000.22,-000.33,-000.18,0000.09,0000.30,19.1,25.0,10.0,07.0,0672.0,31.2
2021-07-04T11:43:00Z,00000200,00000000,0000.47,0000.27,-000.00,0000.17,0000.23,-000.20,0000.00,0000.07,0000.10,19.1,25.0,09.9,06.9,0671.9,31.2
2021-07-04T11:44:00Z,00000200,00000000,-000.13,0000.43,0000.19,0000.07,0000.11,-000.08,0000.60,-000.01,0000.07,19.1,25.0,09.9,06.9,0672.0,31.1
2021-07-04T11:45:00Z,00000200,00000000,0000.10,0000.34,0000.03,0000.11,0000.22,-000.28,-000.13,0000.53,0000.10,19.1,25.0,10.1,07.0,0672.1,31.1
2021-07-04T11:46:00Z,00000200,00000000,0000.29,0000.22,0000.41,0000.24,0000.31,-000.22,0000.00,0000.06,0000.10,19.1,25.0,10.1,07.0,0672.0,31.1
2021-07-04T11:47:00Z,00000200,00000000,-000.12,0000.32,0000.31,0000.33,0000.24,0000.18,0000.32,-000.06,-000.09,19.1,25.0,09.9,06.9,0672.0,31.1
2021-07-04T11:48:00Z,00000200,00000000,-000.01,0000.43,0000.44,-000.29,0000.33,0000.19,-000.05,-000.27,-000.08,19.0,25.0,10.0,06.9,0671.9,31.1
2021-07-04T11:49:00Z,00000200,00000000,0000.89,0000.03,0000.16,0000.36,0000.15,-000.09,0000.29,0000.58,0000.33,19.0,25.0,09.8,06.8,0672.0,31.1
2021-07-04T11:50:00Z,00000200,00000000,-000.22,0000.23,0000.30,-000.13,0000.35,0000.14,-000.50,-000.31,-000.01,19.0,25.0,10.0,06.9,0672.0,31.1
2021-07-04T11:51:00Z,00000200,00000000,0000.58,0000.13,0000.28,-000.05,0000.08,0000.30,0000.32,0000.05,-000.07,19.0,25.0,09.9,06.9,0672.0,31.1
2021-07-04T11:52:00Z,00000200,00000000,0000.91,0000.23,0000.13,0000.29,0000.34,0000.14,0000.36,0000.39,0000.70,19.0,25.0,10.0,07.0,0672.1,31.1
2021-07-04T11:53:00Z,00000200,00000000,-000.06,0000.28,0000.45,0000.04,0000.17,0000.25,-000.16,-000.26,-000.23,19.1,25.0,10.0,07.0,0672.0,31.1
2021-07-04T11:54:00Z,00000200,00000000,0000.49,0000.34,0000.22,0000.09,0000.19,0000.23,0000.30,0000.46,-000.10,19.1,25.1,09.8,06.8,0672.0,31.2
2021-07-04T11:55:00Z,00000200,00000000,0000.42,0000.21,0000.10,0000.34,0000.16,-000.01,-000.18,-000.08,0000.14,19.1,25.1,09.9,06.9,0671.9,31.1
2021-07-04T11:56:00Z,00000200,00000000,0000.55,0000.25,0000.27,0000.24,0000.35,0000.25,0000.05,-000.07,-000.03,19.1,25.1,09.8,06.8,0671.9,31.1
2021-07-04T11:57:00Z,00000200,40000000,,,,,,,-000.21,0000.04,-000.08,19.1,25.1,09.8,06.8,0672.0,31.1
2021-07-04T11:58:00Z,00000200,60000000,,,,,,,-000.03,-000.20,-000.22,19.0,25.2,09.8,06.7,0670.9,31.1
2021-07-04T11:59:00Z,00000200,20000000,,,,,,,0000.50,0000.22,0000.38,19.0,25.3,09.8,06.7,0670.9,31.1
